Hurlburt Field, FL

4:33 AM CDT on August 30, 2016 (GMT -0500)
Hurlburt

Weather History for KHRT - May, 2014

Change the Weather History Date:

Friday, May 23, 2014

  Actual Average Record
Temperature  
Mean Temperature 76 °F -  
Max Temperature 87 °F 82 °F 87 °F (1998)
Min Temperature 67 °F 66 °F 53 °F (2002)
Cooling Degree Days 12    
Growing Degree Days 26 (Base 50)    
Moisture  
Dew Point 65 °F    
Average Humidity 65    
Maximum Humidity 82    
Minimum Humidity 43    
Precipitation  
Precipitation 0.00 in - - ()
Sea Level Pressure  
Sea Level Pressure 30.09 in    
Wind  
Wind Speed 4 mph (West)    
Max Wind Speed 15 mph    
Max Gust Speed 17 mph    
Visibility 10 miles    
Events      
Averages and records for this station are not official NWS values.
T = Trace of Precipitation, MM = Missing Value Source: NWS Daily Summary

Daily Weather History Graph

Daily Weather History Graph

Search for Another Location

Airport or City:

Trip Planner

Search our weather history database for the weather conditions in past years. The results will help you decide how hot, cold, wet, or windy it might be!

Date:

Astronomy

May. 23, 2014 Rise Set
Actual Time 5:48 AM CDT 7:39 PM CDT
Civil Twilight 5:21 AM CDT 8:05 PM CDT
Nautical Twilight 4:49 AM CDT 8:38 PM CDT
Astronomical Twilight 4:14 AM CDT 9:12 PM CDT
Moon 2:19 AM CDT (5/23) 2:51 PM CDT (5/23)
Length of Visible Light 14h 44m
Length of Day
13h 50m
Waning Crescent, 27% of the Moon is Illuminated
May 23
Waning Crescent
May 28
New
Jun 5
First Quarter
Jun 12
Full
Jun 19
Last Quarter

Hourly Weather History & Observations

Time (CDT) Temp. Heat Index Dew Point Humidity Pressure Visibility Wind Dir Wind Speed Gust Speed Precip Events Conditions
12:58 AM 72.1 °F - 61.9 °F 70% 30.09 in 10.0 mi Variable 3.5 mph - N/A   Clear
1:58 AM 67.6 °F - 61.9 °F 82% 30.08 in 10.0 mi North 2.3 mph - N/A   Clear
2:58 AM 71.2 °F - 62.2 °F 73% 30.09 in 10.0 mi Calm Calm - N/A   Clear
3:58 AM 70.3 °F - 62.4 °F 76% 30.10 in 10.0 mi North 2.3 mph - N/A   Clear
4:58 AM 69.4 °F - 63.0 °F 80% 30.10 in 10.0 mi WNW 2.3 mph - 0.00 in   Clear
5:58 AM 69.6 °F - 63.0 °F 79% 30.12 in 10.0 mi North 1.2 mph - N/A   Clear
6:58 AM 71.2 °F - 64.4 °F 79% 30.14 in 10.0 mi NNW 3.5 mph - N/A   Clear
7:58 AM 75.4 °F - 64.0 °F 68% 30.15 in 10.0 mi NW 6.9 mph - N/A   Clear
8:58 AM 79.5 °F - 63.9 °F 59% 30.15 in 10.0 mi Variable 5.8 mph - N/A   Clear
9:58 AM 83.5 °F 84.7 °F 63.5 °F 51% 30.15 in 10.0 mi Variable 5.8 mph - N/A   Clear
10:53 AM 86.0 °F 86.1 °F 60.8 °F 43% 30.12 in 10.0 mi Variable 4.6 mph - N/A   Partly Cloudy
10:58 AM 86.2 °F 86.3 °F 61.0 °F 43% 30.13 in 10.0 mi North 5.8 mph - 0.00 in   Light Drizzle
11:02 AM 86.0 °F 86.1 °F 60.8 °F 43% 30.12 in 10.0 mi Variable 5.8 mph - N/A   Clear
11:58 AM 86.5 °F 87.6 °F 63.5 °F 46% 30.12 in 10.0 mi Variable 5.8 mph - 0.00 in   Partly Cloudy
12:58 PM 86.0 °F 87.9 °F 65.5 °F 50% 30.11 in 10.0 mi SSW 11.5 mph - N/A   Partly Cloudy
1:58 PM 86.0 °F 88.5 °F 66.4 °F 52% 30.09 in 10.0 mi SSW 10.4 mph - N/A   Clear
2:58 PM 85.3 °F 88.2 °F 67.5 °F 55% 30.08 in 10.0 mi SSW 11.5 mph - N/A   Clear
3:58 PM 85.5 °F 88.8 °F 68.4 °F 56% 30.06 in 10.0 mi SW 11.5 mph 17.3 mph N/A   Clear
4:58 PM 84.4 °F 87.6 °F 68.4 °F 58% 30.05 in 10.0 mi SW 15.0 mph - N/A   Clear
5:58 PM 82.9 °F 85.6 °F 67.5 °F 59% 30.04 in 10.0 mi SW 8.1 mph - N/A   Clear
6:58 PM 80.8 °F 84.2 °F 70.0 °F 70% 30.05 in 10.0 mi SW 5.8 mph - N/A   Clear
7:58 PM 79.2 °F - 69.6 °F 72% 30.06 in 10.0 mi SW 3.5 mph - N/A   Clear
8:58 PM 78.4 °F - 70.0 °F 75% 30.06 in 10.0 mi WSW 3.5 mph - 0.00 in   Clear
9:58 PM 78.1 °F - 69.3 °F 74% 30.07 in 10.0 mi WNW 1.2 mph - N/A   Clear
10:13 PM 77.0 °F - 69.8 °F 78% 30.06 in 8.0 mi NNW 1.2 mph - N/A   Clear
10:23 PM 77.0 °F - 68.0 °F 74% 30.06 in 10.0 mi Calm Calm - N/A   Clear
10:58 PM 76.5 °F - 68.4 °F 76% 30.08 in 10.0 mi West 2.3 mph - N/A   Clear
11:58 PM 75.7 °F - 65.8 °F 71% 30.08 in 10.0 mi Calm Calm - N/A   Clear